[[{"header":{"parameterUnit":"m.s-1","parameterCategory":1,"la1":30.2991,"la2":30.254,"lo1":-89.0895,"lo2":-89.0444,"dy":0.0017,"dx":0.0017,"nx":28,"ny":28,"refTime":"2024-03-13T21:00:00:Z","depth":0,"parameterNumber":2,"parameterNumberName":"U-component_of_WINDS"},"data":[0,0,0,0,0,0,0,0,0,0,0,0,0,0,0,0,0,0,0,0,0,0,0,0,0,0,0,0,0,0,0,0,0,0,0,0,0,0,0,0,0,0,0,0,0,0,0,0,0,0,0,0,0,0,0,0,0,0,-4.5219,-4.522,0,-4.5306,-4.5307,-4.5307,-4.5273,-4.5271,-4.5269,-4.5267,-4.5355,-4.536,-4.5364,0,0,0,0,0,0,0,0,0,0,0,0,0,-4.5026,-4.5029,-4.5219,-4.522,-4.5221,-4.5305,-4.5307,-4.5308,-4.5274,-4.5271,-4.5269,-4.5266,-4.5354,-4.5359,-4.5364,0,0,0,0,0,0,0,0,0,0,0,0,0,-4.5111,-4.5031,-4.5219,-4.5214,-4.5215,-4.5305,-4.5307,-4.5308,-4.5274,-4.5271,-4.5268,-4.5265,-4.5352,-4.5359,-4.5365,-4.5464,0,0,-4.5384,-4.5387,0,0,0,0,0,0,0,0,-4.5106,-4.5118,-4.5214,-4.5215,-4.5216,-4.5276,-4.5271,-4.5361,-4.5275,-4.5252,-4.5267,-4.5264,-4.5331,-4.5339,-4.5362,-4.5469,-4.5472,-4.5385,-4.5389,-4.5391,-4.5393,0,0,0,0,0,0,0,-4.51,-4.5114,-4.5253,-4.5215,-4.5216,-4.5208,-4.5217,-4.5287,-4.5307,-4.5253,-4.5251,-4.5262,-4.5331,-4.5356,-4.5364,-4.5474,-4.5385,-4.539,-4.5394,-4.5397,-4.5668,-4.5671,0,0,0,0,0,0,-4.5094,-4.5109,-4.525,-4.5256,-4.5152,-4.5214,-4.5224,-4.5259,-4.5306,-4.5311,-4.5264,-4.526,-4.5347,-4.5356,-4.5367,-4.5486,-4.5391,-4.5397,-4.5401,-4.5664,-4.5668,-4.5672,0,0,0,0,0,0,-4.509,-4.5107,-4.5247,-4.5182,-4.5199,-4.5221,-4.5261,-4.5263,-4.5287,-4.5315,-4.5318,-4.5286,-4.5345,-4.5358,-4.5441,-4.5489,-4.54,-4.5406,-4.566,-4.5666,-4.567,-4.5727,0,0,0,0,0,0,-4.5084,-4.5105,-4.5143,-4.5183,-4.5203,-4.5319,-4.5264,-4.5267,-4.5298,-4.5293,-4.5336,-4.534,-4.5343,-4.5431,-4.5447,-4.5496,-4.5411,-4.5656,-4.5663,-4.5669,-4.5721,-4.5733,-4.5744,0,0,0,0,0,-4.5078,-4.5155,-4.5145,-4.5162,-4.525,-4.5322,-4.5333,-4.5335,-4.5302,-4.5341,-4.5359,-4.5339,-4.5482,-4.544,-4.5457,-4.5509,-4.5653,-4.5661,-4.5668,-4.5715,-4.5731,-4.5744,0,0,0,0,0,0,-4.5119,-4.516,-4.5149,-4.5242,-4.5279,-4.5316,-4.5364,-4.5351,-4.5398,-4.5391,-4.5392,-4.5402,-4.5488,-4.5507,-4.546,-4.5609,-4.5562,-4.5574,-4.5592,-4.5607,-4.5619,-4.5611,-4.5416,0,0,0,0,0,-4.514,-4.5194,-4.5227,-4.5306,-4.5325,-4.5342,-4.5373,-4.5372,-4.541,-4.5425,-4.5449,-4.5487,-4.554,-4.5575,-4.5626,-4.5724,-4.5733,-4.5769,-4.578,-4.579,-4.5799,-4.5853,-4.5869,-4.5697,-4.5697,-4.5697,0,0,-4.5181,-4.5211,-4.5245,-4.5315,-4.5343,-4.54,-4.5355,-4.5417,-4.5459,-4.5434,-4.5514,-4.5533,-4.5575,-4.5667,-4.5708,-4.5685,-4.5849,-4.58,-4.5807,-4.5811,-4.5862,-4.5879,-4.5893,-4.5702,-4.5701,-4.5701,0,0,-4.5286,-4.5314,-4.5383,-4.5413,-4.5457,-4.5468,-4.5485,-4.5524,-4.5536,-4.5616,-4.5599,-4.565,-4.5742,-4.5773,-4.5801,-4.5921,-4.5904,-4.5938,-4.5998,-4.605,-4.6064,-4.6076,-4.6118,-4.6133,-4.5948,-4.5948,-4.5948,0,-4.5332,-4.5417,-4.542,-4.5483,-4.5515,-4.5497,-4.5567,-4.5596,-4.5654,-4.5676,-4.5651,-4.5767,-4.5794,-4.5893,-4.5922,-4.5946,-4.5965,-4.5932,-4.6062,-4.6074,-4.6085,-4.6125,-4.6141,-4.5951,-4.5951,-4.5951,-4.595,0,-4.5471,-4.5531,-4.5581,-4.5638,-4.5676,-4.5743,-4.5756,-4.5794,-4.5791,-4.5805,-4.5887,-4.592,-4.5977,-4.6001,-4.5998,-4.61,-4.6084,-4.6061,-4.6013,-4.6105,-4.6142,-4.6158,-4.5957,-4.5955,-4.5954,-4.5953,0,0,-4.5601,-4.5661,-4.568,-4.5706,-4.5754,-4.58,-4.5867,-4.5924,-4.5956,-4.5998,-4.6054,-4.6134,-4.6112,-4.6144,-4.6145,-4.6192,-4.6284,-4.6162,-4.6163,-4.6182,-4.6398,-4.6414,-4.6431,-4.6275,-4.6278,-4.628,-4.6394,0,-4.5709,-4.5825,-4.5831,-4.5936,-4.5991,-4.5977,-4.6035,-4.6072,-4.6087,-4.6137,-4.6155,-4.6211,-4.6179,-4.6198,-4.6244,-4.6263,-4.6327,-4.6256,-4.6326,-4.6328,-4.6313,-4.6451,-4.6468,-4.6573,-4.6409,-4.6411,-4.6413,0,-4.5848,-4.5895,-4.6007,-4.6049,-4.6072,-4.6124,-4.6177,-4.6225,-4.6267,-4.6275,-4.6312,-4.6307,-4.6376,-4.6329,-4.6424,-4.6375,-4.6405,-4.6419,-4.6424,-4.6428,-4.6374,-4.6458,-4.6607,-4.6622,-4.6436,-4.6435,-4.6433,0,-4.5931,-4.6022,-4.61,-4.6124,-4.6175,-4.6212,-4.6235,-4.6274,-4.6308,-4.6355,-4.6377,-4.6432,-4.6462,-4.6504,-4.6514,-4.6479,-4.6609,-4.6563,-4.6618,-4.6617,-4.6643,-4.6641,-4.6797,-4.6666,-4.6666,-4.6666,-4.6665,0,-4.6049,-4.6117,-4.6138,-4.6186,-4.6263,-4.627,-4.6346,-4.6367,-4.6402,-4.6454,-4.6446,-4.6495,-4.6507,-4.6558,-4.6567,-4.6644,-4.6658,-4.6667,-4.6668,-4.6666,-4.6665,-4.6683,-4.6676,-4.667,-4.6669,-4.6668,-4.6668,0,-4.6151,-4.6169,-4.6253,-4.6296,-4.6308,-4.6363,-4.6399,-4.6446,-4.6462,-4.6528,-4.6544,-4.6569,-4.663,-4.6646,-4.6718,-4.6724,-4.6815,-4.681,-4.68,-4.6799,-4.6852,-4.6846,-4.7024,-4.7048,-4.6903,-4.6905,-4.6906,0,-4.6224,-4.6277,-4.6326,-4.636,-4.6385,-4.6441,-4.6476,-4.6487,-4.6524,-4.6577,-4.6617,-4.6677,-4.6725,-4.6823,-4.6848,-4.6904,-4.6899,-4.6958,-4.6907,-4.6904,-4.6898,-4.6894,-4.6899,-4.6966,-4.6968,-4.6969,-4.697,0,-4.6351,-4.6358,-4.6409,-4.6464,-4.6507,-4.655,-4.6592,-4.6621,-4.6637,-4.668,-4.6742,-4.678,-4.6855,-4.6914,-4.6971,-4.6995,-4.6986,-4.6987,-4.7002,-4.6999,-4.6991,-4.6995,-4.6824,-4.6982,-4.698,-4.698,-4.6979,-4.6979,-4.644,-4.6486,-4.6528,-4.6586,-4.6619,-4.6659,-4.6705,-4.6728,-4.678,-4.6841,-4.6845,-4.6913,-4.6955,-4.703,-4.7058,-4.7112,-4.7094,-4.7116,-4.7122,-4.7126,-4.713,-4.6985,-4.7122,-4.7122,-4.7122,-4.7122,-4.7121,0,-4.6565,-4.6592,-4.6646,-4.6705,-4.6751,-4.674,-4.6786,-4.6825,-4.6884,-4.6925,-4.6973,-4.7046,-4.7104,-4.7135,-4.7193,-4.723,-4.7227,-4.7245,-4.7241,-4.7247,-4.7144,-4.7124,-4.7246,-4.7246,-4.7246,-4.7246,-4.7246,-4.7246,-4.6635,-4.6713,-4.6725,-4.6819,-4.6846,-4.6912,-4.6939,-4.6977,-4.7009,-4.709,-4.7139,-4.7159,-4.7196,-4.7257,-4.7311,-4.7319,-4.734,-4.7359,-4.7364,-4.7267,-4.7254,-4.7242,-4.7223,-4.7364,-4.7365,-4.7463,-4.7464,-4.7465]},{"header":{"parameterUnit":"m.s-1","parameterCategory":1,"la1":30.2991,"la2":30.254,"lo1":-89.0895,"lo2":-89.0444,"dy":0.0017,"dx":0.0017,"nx":28,"ny":28,"refTime":"2024-03-13T21:00:00:Z","depth":0,"parameterNumber":3,"parameterNumberName":"V-component_of_WINDS"},"data":[0,0,0,0,0,0,0,0,0,0,0,0,0,0,0,0,0,0,0,0,0,0,0,0,0,0,0,0,0,0,0,0,0,0,0,0,0,0,0,0,0,0,0,0,0,0,0,0,0,0,0,0,0,0,0,0,0,0,1.4834,1.4834,0,1.4862,1.4862,1.4862,1.4894,1.4895,1.4895,1.4896,1.4921,1.4921,1.4921,0,0,0,0,0,0,0,0,0,0,0,0,0,1.4806,1.4807,1.4833,1.4834,1.4834,1.4862,1.4862,1.4862,1.4894,1.4895,1.4895,1.4896,1.4921,1.4921,1.4921,0,0,0,0,0,0,0,0,0,0,0,0,0,1.4825,1.4807,1.4833,1.4853,1.4856,1.4862,1.4862,1.4862,1.4894,1.4895,1.4896,1.4896,1.4921,1.4921,1.4921,1.4909,0,0,1.4922,1.4922,0,0,0,0,0,0,0,0,1.4823,1.4825,1.485,1.4852,1.4854,1.4875,1.4862,1.4878,1.4894,1.4879,1.4896,1.4897,1.4905,1.4907,1.491,1.491,1.4911,1.4922,1.4923,1.4923,1.4923,0,0,0,0,0,0,0,1.4822,1.4824,1.4845,1.485,1.4853,1.4861,1.4864,1.4865,1.4887,1.4881,1.4883,1.4886,1.4906,1.491,1.4911,1.4911,1.4922,1.4923,1.4923,1.4923,1.4906,1.4905,0,0,0,0,0,0,1.4818,1.4823,1.4844,1.4845,1.4841,1.4861,1.4864,1.4868,1.4888,1.4891,1.4885,1.4888,1.4909,1.491,1.4912,1.4901,1.4923,1.4923,1.4923,1.4906,1.4906,1.4905,0,0,0,0,0,0,1.4817,1.482,1.4843,1.4835,1.4839,1.486,1.4864,1.4868,1.4872,1.4891,1.4895,1.4885,1.4909,1.4911,1.491,1.4902,1.4923,1.4923,1.4907,1.4906,1.4905,1.4877,0,0,0,0,0,0,1.4817,1.4819,1.4815,1.4835,1.4839,1.4841,1.4863,1.4868,1.4873,1.4875,1.4892,1.4895,1.491,1.491,1.4911,1.4903,1.4924,1.4908,1.4907,1.4906,1.4879,1.4875,1.4872,0,0,0,0,0,1.4815,1.4804,1.4814,1.4816,1.4834,1.484,1.4842,1.4861,1.4872,1.4868,1.4881,1.4895,1.4903,1.4909,1.4911,1.4903,1.4909,1.4907,1.4906,1.488,1.4876,1.4872,0,0,0,0,0,0,1.478,1.4807,1.4818,1.4813,1.4825,1.4845,1.484,1.4855,1.4862,1.4864,1.4886,1.4889,1.4886,1.4894,1.4901,1.4893,1.4908,1.4907,1.4888,1.4884,1.4881,1.4879,1.4924,0,0,0,0,0,1.4772,1.4776,1.4799,1.4792,1.4797,1.4818,1.4821,1.4835,1.4847,1.4851,1.4864,1.4874,1.488,1.4882,1.4888,1.488,1.4885,1.4876,1.4872,1.4869,1.4868,1.4867,1.4864,1.49,1.49,1.49,0,0,1.4755,1.477,1.477,1.4785,1.4795,1.4799,1.4821,1.4823,1.4826,1.4851,1.4852,1.4862,1.4875,1.4871,1.487,1.4878,1.486,1.4868,1.4865,1.4865,1.4865,1.4862,1.4859,1.4899,1.4899,1.4899,0,0,1.4725,1.4737,1.4734,1.4744,1.4761,1.4775,1.4774,1.4794,1.4803,1.4804,1.4824,1.4827,1.4835,1.4844,1.485,1.4828,1.4842,1.4829,1.4811,1.481,1.4808,1.4805,1.4799,1.4796,1.4828,1.4828,1.4828,0,1.4701,1.4708,1.473,1.4732,1.4739,1.4764,1.4761,1.477,1.4786,1.4791,1.4799,1.4812,1.4822,1.4823,1.4818,1.4821,1.4822,1.4827,1.4807,1.4804,1.4802,1.4797,1.4794,1.4826,1.4826,1.4826,1.4827,0,1.4679,1.4684,1.4679,1.4697,1.4703,1.4703,1.4725,1.4728,1.4742,1.4756,1.4758,1.4772,1.4782,1.4783,1.4795,1.4786,1.4791,1.4803,1.4818,1.4797,1.4792,1.479,1.4824,1.4824,1.4825,1.4825,0,0,1.4626,1.4659,1.4657,1.4667,1.4688,1.4692,1.4693,1.4705,1.4709,1.472,1.4722,1.473,1.4743,1.4749,1.4763,1.4762,1.4747,1.4775,1.4775,1.477,1.4739,1.4731,1.4728,1.4756,1.4756,1.4756,1.4739,0,1.4602,1.4607,1.4628,1.4627,1.4633,1.4658,1.466,1.4673,1.4687,1.4693,1.4708,1.4714,1.4729,1.4733,1.4733,1.4748,1.4741,1.475,1.4759,1.4759,1.4756,1.4725,1.4715,1.4699,1.4737,1.4737,1.4736,0,1.4573,1.4585,1.4585,1.461,1.4613,1.4614,1.4628,1.4634,1.465,1.466,1.467,1.4686,1.469,1.4704,1.471,1.4716,1.4721,1.4729,1.4729,1.4731,1.4747,1.4727,1.4694,1.4692,1.4733,1.4733,1.4734,0,1.4537,1.4553,1.4556,1.4563,1.4591,1.4592,1.4603,1.462,1.4627,1.4639,1.4644,1.4656,1.4662,1.4671,1.4691,1.4699,1.4696,1.4711,1.4704,1.4704,1.4702,1.4702,1.467,1.4704,1.4704,1.4704,1.4704,0,1.4507,1.4507,1.4541,1.4543,1.4544,1.4568,1.4568,1.4582,1.4598,1.4603,1.4625,1.4629,1.4655,1.4662,1.4677,1.4681,1.4683,1.4692,1.4696,1.4691,1.469,1.4694,1.4696,1.4704,1.4704,1.4704,1.4704,0,1.4466,1.4489,1.4495,1.4522,1.4529,1.4528,1.4551,1.4554,1.457,1.4577,1.458,1.4605,1.4615,1.4636,1.4651,1.4661,1.4662,1.4669,1.4657,1.466,1.4653,1.4653,1.4623,1.4621,1.4655,1.4655,1.4654,0,1.4446,1.4447,1.4475,1.4482,1.4493,1.4502,1.451,1.4535,1.4542,1.4563,1.4564,1.4576,1.4588,1.4603,1.4622,1.4634,1.4642,1.4631,1.4644,1.4639,1.4644,1.4644,1.4645,1.4628,1.4627,1.4627,1.4626,0,1.4409,1.4421,1.4433,1.4449,1.4459,1.4472,1.4486,1.449,1.4518,1.4525,1.4538,1.4547,1.4564,1.4577,1.4592,1.4604,1.462,1.4622,1.4622,1.4616,1.461,1.4615,1.465,1.4623,1.4623,1.4623,1.4624,1.4624,1.4379,1.4382,1.4404,1.4416,1.4431,1.4444,1.445,1.4468,1.4479,1.4496,1.451,1.4521,1.454,1.4563,1.4574,1.4583,1.4591,1.4589,1.4589,1.4589,1.4587,1.4608,1.4586,1.4586,1.4586,1.4586,1.4586,0,1.4345,1.436,1.4372,1.4393,1.4404,1.442,1.4438,1.4445,1.4455,1.4472,1.4484,1.4499,1.4512,1.4533,1.4548,1.4552,1.456,1.4555,1.4555,1.4558,1.4579,1.4579,1.4548,1.4548,1.4548,1.4548,1.4548,1.4548,1.4328,1.4335,1.435,1.4365,1.438,1.4393,1.4402,1.4415,1.4429,1.4445,1.4457,1.4472,1.4491,1.4508,1.4521,1.4527,1.4532,1.4525,1.4533,1.4552,1.4556,1.4559,1.4559,1.4525,1.4525,1.4512,1.4511,1.4511]}]]